[{"OBJECT_NAME":"COSMOS 1408 DEB","OBJECT_ID":"1982-092RU","EPOCH":"2026-09-13T03:19:16.487328","MEAN_MOTION":15.48355272,"ECCENTRICITY":0.00133423,"INCLINATION":82.5629,"RA_OF_ASC_NODE":136.6356,"ARG_OF_PERICENTER":298.587,"MEAN_ANOMALY":61.4037,"EPHEMERIS_TYPE":0,"CLASSIFICATION_TYPE":"U","NORAD_CAT_ID":50032,"ELEMENT_SET_NO":999,"REV_AT_EPOCH":26846,"BSTAR":0.000059246925,"MEAN_MOTION_DOT":0.00003187,"MEAN_MOTION_DDOT":0},{"OBJECT_NAME":"COSMOS 1408 DEB","OBJECT_ID":"1982-092SW","EPOCH":"2026-09-13T02:23:47.668992","MEAN_MOTION":15.96028981,"ECCENTRICITY":0.00090669,"INCLINATION":82.6029,"RA_OF_ASC_NODE":136.4485,"ARG_OF_PERICENTER":126.6268,"MEAN_ANOMALY":233.5843,"EPHEMERIS_TYPE":0,"CLASSIFICATION_TYPE":"U","NORAD_CAT_ID":50058,"ELEMENT_SET_NO":999,"REV_AT_EPOCH":27128,"BSTAR":0.00028458126,"MEAN_MOTION_DOT":0.00116615,"MEAN_MOTION_DDOT":0.000003931535},{"OBJECT_NAME":"COSMOS 1408 DEB","OBJECT_ID":"1982-092ALR","EPOCH":"2026-09-12T02:50:28.072608","MEAN_MOTION":15.76221132,"ECCENTRICITY":0.00154173,"INCLINATION":82.5641,"RA_OF_ASC_NODE":145.5051,"ARG_OF_PERICENTER":199.6944,"MEAN_ANOMALY":160.3728,"EPHEMERIS_TYPE":0,"CLASSIFICATION_TYPE":"U","NORAD_CAT_ID":50621,"ELEMENT_SET_NO":999,"REV_AT_EPOCH":26528,"BSTAR":0.00024897403,"MEAN_MOTION_DOT":0.00039355,"MEAN_MOTION_DDOT":0}]